map of RAR home
RAR - Airport
Location
City:  Avarua, Rarotonga Island, Cook Islands
Name:Rarotonga International Airport
ICAO:NCRG
IATA:RAR

Details
Type:Airport (Aerodrome, Airfield)
Use:Public/Civil, International (customs port of entry)
Latitude:21°12'10"S (-21.202738)
Longitude:159°48'20"W (-159.805555)
Datum:WGS 1984
Elevation:19 ft (6 m)
Variation:13.95°E (WMM2015 magnetic declination)
0.02° annual change
Runways:1
Longest:7638 × 150 ft (2328 × 45.5 m), paved

Time
Time Zone:UTC-10 (DST-9:30)

Weather
METAR:NCRG 251500Z 12004KT 9999 FEW020 24/20 Q1013
TAF:NCRG 251127Z 2512/2612 08007KT 9999 SCT020
TEMPO 2512/2519 8000 SHRA SCT018 SCT040

Related Locations
Nearby:
Farthest:FTTZ: 12244 mi / 19705 km
Bardaļ [Bardaļ-Zougra Airport], TI, TD

Find:

   beyond  
but within

Other Information
Maps:
NOTAMs:
Links:
Sources:

  
  • flag of Cook Islands
  

Sectional Chart

Flight Planning
at skyvector.com

Satellite Image

Google Maps Satellite view

 

Copyright © 2004-2018 Karl L. Swartz. All rights reserved.
The Great Circle Mapper name and logo are trademarks of the Great Circle Mapper.
All other trademarks mentioned herein belong to their respective owners.
Please see credits for attibutions and further copyright information.

  Follow gcmap on Facebook Follow gcmap on Twitter Follow gcmap on Google+ GCmap on LinkedIn

hCard Microformat

Geo Microformat